Regional Weather Roundup
Issued by NWS

Home | Current Version | Previous Version | Text Only | Print | Product List | Glossary On
Versions: 1 2 3 4 5 6 7 8 9 10 11 12 13 14 15 16 17 18 19 20 21 22 23 24 25 26 27 28 29 30 31 32 33 34 35 36 37 38 39 40 41 42 43 44 45 46 47 48 49 50
000
ASUS43 KDMX 201507
RWRIA

WEATHER ROUNDUP FOR IOWA
NATIONAL WEATHER SERVICE DES MOINES IA
1000 AM CDT MON APR 20 2015

NOTE: "FAIR" INDICATES FEW OR NO CLOUDS BELOW 12,000 FEET WITH NO
SIGNIFICANT WEATHER AND/OR OBSTRUCTIONS TO VISIBILITY.

* - THESE STATIONS ARE NOT NWS STATIONS...THUS NOT UNDER NWS
QUALITY CONTROL.  THEY ALSO DO NOT REPORT WEATHER SUCH
AS PRECIPITATION OR FOG.

IAZ001>003-012>014-020>022-031>034-043>046-201600-
   NORTHWEST IOWA

CITY           SKY/WX    TMP DP  RH WIND       PRES   REMARKS
CARROLL *      CLOUDY    43  34  70 NW23G35   29.71R
CHEROKEE *     MOSUNNY   45  32  61 NW17G31   29.70S
DENISON *      MOSUNNY   45  34  65 NW24G32   29.72S
LE MARS *      MOSUNNY   45  32  61 NW26G36   29.75S
ORANGE CITY *  MOSUNNY   43  32  65 NW29G38   29.70F
SHELDON *      PTSUNNY   43  32  65 NW28G35   29.67S
SIOUX CITY     MOSUNNY   47  32  56 NW24G35   29.75F
SPENCER        PTSUNNY   45  33  63 NW29G37   29.65F
STORM LAKE *   PTSUNNY   43  34  70 NW23G36   29.69S
$$

IAZ055>058-069>071-079>083-090>094-201600-
   SOUTHWEST IOWA

CITY           SKY/WX    TMP DP  RH WIND       PRES   REMARKS
ATLANTIC *     PTSUNNY   45  36  70 NW21G29   29.75S
AUDUBON *      PTSUNNY   45  36  70 NW18G26   29.74R
CLARINDA *     MOSUNNY   48  36  61 NW22G31   29.80S
COUNCIL BLFS * PTSUNNY   45  37  76 NW18G26   29.79S
CRESTON *      PTSUNNY   45  37  76 NW23G32   29.74R
HARLAN  *        N/A     43  41  93 NW24G31   29.79R
LAMONI         PTSUNNY   48  37  65 NW24G37   29.73R
RED OAK *      MOSUNNY   46  37  71 NW21G26   29.78S
SHENANDOAH *   MOSUNNY   48  37  66 NW16G26   29.81S
$$

IAZ047>049-059>061-072>074-084-201600-
   CENTRAL IOWA

CITY           SKY/WX    TMP DP  RH WIND       PRES   REMARKS
AMES           CLOUDY    44  35  70 NW24G33   29.65R
ANKENY *       CLOUDY    45  32  61 NW25G38   29.66R
CHARITON *     CLOUDY    46  36  66 NW20G32   29.68S
DES MOINES     CLOUDY    45  35  68 NW26G35   29.68R
GRINNELL*      CLOUDY    43  36  75 NW23G36   29.62R
KNOXVILLE *    PTSUNNY   45  36  70 NW23      29.64S
MARSHALLTOWN   PTSUNNY   45  36  70 NW31G38   29.60R
PELLA *        PTSUNNY   46  39  76 NW20G31   29.65S
PERRY *        CLOUDY    45  36  70 NW21G28   29.70R
$$

IAZ004>006-015-016-023>025-035-036-201600-
   NORTH CENTRAL IOWA

CITY           SKY/WX    TMP DP  RH WIND       PRES   REMARKS
ALGONA *       CLOUDY    41  34  75 NW20G28   29.63R
CLARION *      CLOUDY    41  36  81 NW31G43   29.62R
ESTHERVILLE    CLOUDY    40  33  76 NW28G36   29.62F WCI  29
FORT DODGE *   CLOUDY    43  32  65 NW17G29   29.65S
MASON CITY     MOSUNNY   41  31  67 NW33G45   29.58R
FOREST CITY *  PTSUNNY   37  32  81 NW30G39   29.59R WCI  25
IOWA FALLS *   CLOUDY    43  34  70 NW37G45   29.61R
$$

IAZ007>011-017>019-026>030-037>042-050>054-066-201600-
   NORTHEAST IOWA

CITY           SKY/WX    TMP DP  RH WIND       PRES   REMARKS
CEDAR RAPIDS   PTSUNNY   44  36  73 NW29G39   29.53R
CHARLES CITY * PTSUNNY   39  32  75 NW29G44   29.53S WCI  28
CLINTON *      SUNNY     45  36  70 NW24G36   29.50R
DECORAH *      CLOUDY    39  32  75 NW18G28   29.47R WCI  30
DUBUQUE        CLOUDY    41  35  79 W24G31    29.45R
MONTICELLO *   CLOUDY    43  34  70 NW31G43   29.49R
OELWEIN *      CLOUDY    41  34  75 NW32G39   29.51R
WATERLOO       CLOUDY    42  32  67 NW26G38   29.53S
$$

IAZ064-065-067-068-078-201600-
   EAST CENTRAL IOWA

CITY           SKY/WX    TMP DP  RH WIND       PRES   REMARKS
DAVENPORT      PTSUNNY   46  36  68 W31G39    29.50R
IOWA CITY      PTSUNNY   47  35  63 NW22G40   29.57R
MT. PLEASANT * PTSUNNY   46  34  61 NW20G30   29.60R
MUSCATINE *    CLOUDY    46  34  61 NW29G41   29.57R
QUAD CITIES    MOSUNNY   49  35  58 NW25G33   29.50R
$$

IAZ062-063-075>077-085>089-095>099-201600-
   SOUTHEAST IOWA

CITY           SKY/WX    TMP DP  RH WIND       PRES   REMARKS
BURLINGTON     MOSUNNY   49  36  61 NW23G35   29.58R
FAIRFIELD *    CLOUDY    46  36  66 W20G32    29.61R
FORT MADISON * PTSUNNY   48  37  66 W21G41    29.61R
KEOKUK *       CLOUDY    48  37  66 W18       29.62R
OSKALOOSA *    CLOUDY    45  37  76 NW26G37   29.63R
CENTERVILLE *  MOSUNNY   45  39  81 W25G32    29.70R
OTTUMWA        PTSUNNY   46  35  65 NW18G31   29.63R
WASHINGTON *   PTSUNNY   46  37  71 NW28G38   29.59R
$$

ABBREVIATIONS USED IN REMARKS
   TC - TEMPERATURES IN CELSIUS
  WCI - WIND CHILL INDEX
   HX - HEAT INDEX
  VSB - VISIBILITY
$$



USA.gov is the U.S. government's official web portal to all federal, state and local government web resources and services.